Tracking 31027 objects as of 19-Jul-2025
HD Live streaming from Space Station
objects crossing your sky now

PSLV R/B

Track PSLV R/B now!
10-day predictions


NORAD ID: 28050
Int'l Code: 2003-046B
Perigee: 804.0 km
Apogee: 878.1 km
Inclination: 99.0 °
Period: 101.6 minutes
Semi major axis: 7212 km
RCS: 6.3209 m2 (large)
Launch date: October 17, 2003
Source: India (IND)
Launch site: SRIHARIKOTA (SRI)

Note: This is a ROCKET BODY
Your satellite tracking list
FREGAT DEB
Track 1 satellite(s)




NASA's NSSDC Master Catalog

Two Line Element Set (TLE):
1 28050U 03046B   25199.69834949  .00000075  00000-0  58811-4 0  9995
2 28050  99.0186 167.7738 0051405 137.5762  34.9186 14.17474809124840
Source of the keplerian elements: AFSPC